Location: Pebble Beach Sunset Acres
(33.0837°N, 96.4508°W)
Time: 03:05:47
(UTC+00:00)

Sich 1 - Pass Details

Date: 26 June 2022
Orbit: 593 x 622 km, 82.5° (Epoch: 11 August)

Event Time Altitude Azimuth Distance (km) Brightness Sun altitude
Rises 10:22:40 0° 172° (S) 2,867 6.2 -10.7°
Reaches altitude 10° 10:24:56 10° 166° (SSE) 1,962 5.4 -10.3°
Maximum altitude 10:29:06 47° 93° (E) 810 4.1 -9.6°
Drops below altitude 10° 10:33:15 10° 19° (NNE) 1,957 6.5 -8.9°
Sets 10:35:31 0° 14° (NNE) 2,859 7.3 -8.5°
